Погода в Пожарском

Россия / Приморский край     46°15′13″N   134°03′49″E
темп.,
°C
ветер,
м/с
пор.,
м/с
влажн.,
%
обл.,
%
осадки,
мм/ч
давл.,
гПа
погр.,
м
24 января, вс
вс2401:00−17ю22870 0.0 102720
04:00−17ю23840 0.0 102620
07:00−18ююз12850 0.0 102720
10:00−15юз23880 0.0 102790
13:00−10юз34884 0.0 1028290
16:00−9юз239019 0.0 1027242
19:00−13юз12923 0.0 103121
22:00−16з01965 0.0 103120
25 января, пн
пн2501:00−17ссз009824 0.0 103320
04:00−18сз009923 0.0 103420
07:00−20ссв119923 0.0 103520
10:00−17в009619 0.0 103525
13:00−12ссв118765 0.0 1034244
16:00−11св348740 0.0 1031298
19:00−15всв23927 0.0 103125
22:00−16св23904 0.0 103030
26 января, вт
вт2601:00−16всв129233 0.0 102820
04:00−14в129165 0.0 102521
07:00−10вюв1496100 1.1 1022179
10:00−6ююв51294100 2.8 1020448
13:00−2ю5996100 2.3 1017577
16:00−1ю2399100 6.9 1015226
19:00−1зюз2599100 3.4 1015203
22:00−7сз4790100 3.9 1015168
27 января, ср
ср2701:00−12зсз2388100 0.0 101626
04:00−16юз349064 0.0 101735
07:00−18зюз34933 0.0 101766
10:00−18зюз39916 0.0 1019303
13:00−14зюз58710 0.0 1019983
16:00−13зюз7128126 0.1 10201639
19:00−19зюз468772 0.1 1021104
22:00−19юз479786 0.3 1023159
28 января, чт
чт2801:00−22юз349696 0.0 102359
04:00−22юз369891 0.0 1024100
07:00−24юз239750 0.0 102420
10:00−22ю229425 0.0 102471
13:00−17ююз12848 0.0 1021341
16:00−15св118131 0.0 1019387
19:00−19св239381 0.0 101924
22:00−19ссв349390 0.0 101872